Location: Harburg
(48.7667°N, 10.6667°E)
Time: 06:20:47
(UTC+00:00)

HJ-1C - Pass Details

Date: 18 September 2020
Orbit: 432 x 443 km, 97.1° (Epoch: 22 October)

Event Time Altitude Azimuth Distance (km) Brightness Sun altitude
Rises 18:25:31 0° 175° (S) 2,397 6.9 -11.0°
Reaches altitude 10° 18:27:32 10° 179° (S) 1,534 5.9 -11.3°
Maximum altitude 18:30:46 58° 259° (W) 514 4.0 -11.8°
Drops below altitude 10° 18:34:03 10° 340° (NNW) 1,551 6.6 -12.3°
Sets 18:36:06 0° 344° (NNW) 2,427 7.6 -12.7°
